• In Russia
  • List of Countries
  • For 7 days
  • Water Temperature
  • Satellite Maps
  • Weather Map
  • Weather Widgets
  • user-avatar
    Login

    Hourly Weather Egilsstaðir

    Today, 16 January, Wednesday

    Time Temperature Precipitation Wind Pressure Humidity
    00:00 -17°C° 0 mm 1 mps 650 mmHg 98%
    01:00 -17°C° 0 mm 1 mps 650 mmHg 99%
    02:00 -17°C° 0 mm 1 mps 650 mmHg 99%
    03:00 -17°C° 0 mm 1 mps 650 mmHg 99%
    04:00 -17°C° 0 mm 1 mps 650 mmHg 98%
    05:00 -17°C° 0 mm 1 mps 649 mmHg 98%
    06:00 -17°C° 0 mm 1 mps 649 mmHg 98%
    07:00 -17°C° 0 mm 1 mps 649 mmHg 97%
    08:00 -17°C° 0 mm 1 mps 649 mmHg 94%
    09:00 -17°C° 0 mm 1 mps 649 mmHg 91%
    10:00 -18°C° 0 mm 1 mps 648 mmHg 89%
    11:00 -17°C° 0 mm 1 mps 648 mmHg 86%
    12:00 -17°C° 0 mm 1 mps 648 mmHg 83%
    13:00 -19°C° 0 mm 2 mps 648 mmHg 80%
    14:00 -19°C° 0 mm 2 mps 648 mmHg 80%
    15:00 -19°C° 0 mm 2 mps 648 mmHg 80%
    16:00 -19°C° 0 mm 2 mps 648 mmHg 80%
    17:00 -19°C° 0.1 mm 2 mps 648 mmHg 83%
    18:00 -19°C° 0.1 mm 2 mps 648 mmHg 87%
    19:00 -18°C° 0.1 mm 2 mps 648 mmHg 91%
    20:00 -18°C° 0.2 mm 2 mps 648 mmHg 92%
    21:00 -18°C° 0.2 mm 2 mps 648 mmHg 93%
    22:00 -18°C° 0.2 mm 2 mps 648 mmHg 95%
    23:00 -18°C° 0.2 mm 2 mps 648 mmHg 95%

    Tomorrow, 17 January, Thursday

    Time Temperature Precipitation Wind Pressure Humidity
    00:00 -16°C° 0.2 mm 1 mps 649 mmHg 95%
    01:00 -16°C° 0.2 mm 1 mps 649 mmHg 95%
    02:00 -16°C° 0.1 mm 1 mps 649 mmHg 95%
    03:00 -16°C° 0.1 mm 1 mps 649 mmHg 95%
    04:00 -16°C° 0.1 mm 1 mps 649 mmHg 95%
    05:00 -17°C° 0 mm 1 mps 649 mmHg 96%
    06:00 -19°C° 0 mm 1 mps 648 mmHg 97%
    07:00 -20°C° 0 mm 0 mps 648 mmHg 97%
    08:00 -20°C° 0 mm 1 mps 648 mmHg 97%
    09:00 -20°C° 0 mm 1 mps 648 mmHg 96%
    10:00 -23°C° 0 mm 2 mps 649 mmHg 95%
    11:00 -21°C° 0 mm 2 mps 649 mmHg 88%
    12:00 -21°C° 0 mm 2 mps 649 mmHg 81%
    13:00 -21°C° 0 mm 2 mps 649 mmHg 73%
    14:00 -21°C° 0 mm 2 mps 649 mmHg 73%
    15:00 -21°C° 0 mm 2 mps 649 mmHg 72%
    16:00 -21°C° 0 mm 2 mps 650 mmHg 71%
    17:00 -20°C° 0 mm 2 mps 650 mmHg 78%
    18:00 -19°C° 0 mm 2 mps 650 mmHg 85%
    19:00 -19°C° 0 mm 3 mps 651 mmHg 92%
    20:00 -19°C° 0.1 mm 3 mps 651 mmHg 94%
    21:00 -18°C° 0.1 mm 3 mps 651 mmHg 95%
    22:00 -17°C° 0.1 mm 3 mps 652 mmHg 96%
    23:00 -16°C° 0.1 mm 3 mps 652 mmHg 96%

    Day after tomorrow, 18 January, Friday

    Time Temperature Precipitation Wind Pressure Humidity
    00:00 -16°C° 0.1 mm 3 mps 652 mmHg 96%
    01:00 -16°C° 0.1 mm 4 mps 653 mmHg 96%
    02:00 -16°C° 0.1 mm 4 mps 653 mmHg 96%
    03:00 -16°C° 0.1 mm 4 mps 653 mmHg 96%
    04:00 -16°C° 0.1 mm 3 mps 653 mmHg 96%
    05:00 -16°C° 0.1 mm 3 mps 653 mmHg 96%
    06:00 -16°C° 0.1 mm 3 mps 653 mmHg 96%
    07:00 -15°C° 0.1 mm 2 mps 653 mmHg 96%
    08:00 -15°C° 0.1 mm 2 mps 654 mmHg 96%
    09:00 -15°C° 0.1 mm 2 mps 654 mmHg 96%
    10:00 -15°C° 0.1 mm 2 mps 654 mmHg 96%
    11:00 -15°C° 0.1 mm 2 mps 654 mmHg 95%
    12:00 -15°C° 0.1 mm 2 mps 654 mmHg 95%
    13:00 -16°C° 0.1 mm 2 mps 654 mmHg 95%
    14:00 -16°C° 0.2 mm 3 mps 654 mmHg 95%
    15:00 -17°C° 0.2 mm 4 mps 654 mmHg 95%
    16:00 -16°C° 0.2 mm 4 mps 654 mmHg 95%
    17:00 -15°C° 0.9 mm 5 mps 655 mmHg 95%
    18:00 -14°C° 0.9 mm 5 mps 655 mmHg 95%
    19:00 -14°C° 0.9 mm 6 mps 656 mmHg 95%
    20:00 -13°C° 0.5 mm 5 mps 656 mmHg 95%
    21:00 -13°C° 0.5 mm 5 mps 656 mmHg 95%
    22:00 -14°C° 0.5 mm 5 mps 656 mmHg 94%
    23:00 -14°C° 0.2 mm 5 mps 657 mmHg 95%

    19 January, Saturday

    Time Temperature Precipitation Wind Pressure Humidity
    00:00 -14°C° 0.2 mm 5 mps 657 mmHg 95%
    01:00 -14°C° 0.2 mm 4 mps 657 mmHg 96%
    02:00 -15°C° 0.2 mm 4 mps 657 mmHg 96%
    03:00 -15°C° 0.2 mm 4 mps 657 mmHg 95%
    04:00 -15°C° 0.2 mm 4 mps 657 mmHg 95%
    05:00 -15°C° 0.7 mm 4 mps 658 mmHg 96%
    06:00 -14°C° 0.7 mm 5 mps 658 mmHg 96%
    07:00 -14°C° 0.7 mm 5 mps 658 mmHg 96%
    08:00 -14°C° 0.5 mm 5 mps 659 mmHg 96%
    09:00 -14°C° 0.5 mm 4 mps 659 mmHg 96%
    10:00 -14°C° 0.5 mm 4 mps 659 mmHg 95%
    11:00 -14°C° 0.3 mm 5 mps 660 mmHg 94%
    12:00 -15°C° 0.3 mm 6 mps 660 mmHg 93%
    13:00 -15°C° 0.3 mm 6 mps 660 mmHg 92%
    14:00 -15°C° 0.1 mm 6 mps 661 mmHg 93%
    15:00 -16°C° 0.1 mm 6 mps 661 mmHg 93%
    16:00 -16°C° 0.1 mm 6 mps 661 mmHg 93%
    17:00 -17°C° 0 mm 5 mps 661 mmHg 94%
    18:00 -18°C° 0 mm 5 mps 662 mmHg 94%
    19:00 -17°C° 0 mm 4 mps 662 mmHg 95%
    20:00 -16°C° 0.1 mm 3 mps 662 mmHg 95%
    21:00 -17°C° 0.1 mm 3 mps 663 mmHg 96%
    22:00 -17°C° 0.1 mm 3 mps 663 mmHg 96%
    23:00 -17°C° 0.1 mm 3 mps 663 mmHg 96%

    20 January, Sunday

    Time Temperature Precipitation Wind Pressure Humidity
    00:00 -16°C° 0.1 mm 2 mps 664 mmHg 96%
    01:00 -16°C° 0.1 mm 2 mps 664 mmHg 96%
    02:00 -16°C° 0.1 mm 2 mps 665 mmHg 96%
    03:00 -16°C° 0.1 mm 2 mps 665 mmHg 96%
    04:00 -16°C° 0.1 mm 2 mps 665 mmHg 96%
    05:00 -14°C° 0 mm 1 mps 665 mmHg 97%
    06:00 -14°C° 0 mm 1 mps 665 mmHg 97%
    07:00 -15°C° 0 mm 1 mps 665 mmHg 97%
    08:00 -14°C° 0.1 mm 1 mps 666 mmHg 96%
    09:00 -13°C° 0.1 mm 1 mps 666 mmHg 95%
    10:00 -13°C° 0.1 mm 1 mps 666 mmHg 95%
    11:00 -12°C° 0.2 mm 1 mps 666 mmHg 95%
    12:00 -14°C° 0.2 mm 2 mps 666 mmHg 95%
    13:00 -13°C° 0.2 mm 2 mps 666 mmHg 95%
    14:00 -12°C° 0.4 mm 2 mps 666 mmHg 95%
    15:00 -10°C° 0.4 mm 2 mps 666 mmHg 96%
    16:00 -10°C° 0.4 mm 2 mps 666 mmHg 96%
    17:00 -10°C° 0.2 mm 3 mps 666 mmHg 96%
    18:00 -9°C° 0.2 mm 3 mps 666 mmHg 96%
    19:00 -9°C° 0.2 mm 3 mps 666 mmHg 96%
    20:00 -10°C° 0.3 mm 4 mps 665 mmHg 95%
    21:00 -11°C° 0.3 mm 5 mps 665 mmHg 95%
    22:00 -10°C° 0.3 mm 5 mps 664 mmHg 95%
    23:00 -11°C° 0.1 mm 5 mps 664 mmHg 94%

    21 January, Monday

    Time Temperature Precipitation Wind Pressure Humidity
    00:00 -11°C° 0.1 mm 5 mps 663 mmHg 94%
    01:00 -12°C° 0.1 mm 5 mps 663 mmHg 93%
    02:00 -12°C° 0.5 mm 5 mps 662 mmHg 94%
    03:00 -12°C° 0.5 mm 5 mps 662 mmHg 95%
    04:00 -11°C° 0.5 mm 5 mps 662 mmHg 95%
    05:00 -11°C° 0.5 mm 5 mps 662 mmHg 95%
    06:00 -11°C° 0.5 mm 5 mps 662 mmHg 96%
    07:00 -11°C° 0.5 mm 5 mps 662 mmHg 96%
    08:00 -11°C° 0.2 mm 5 mps 662 mmHg 94%
    09:00 -12°C° 0.2 mm 6 mps 662 mmHg 92%
    10:00 -12°C° 0.2 mm 6 mps 663 mmHg 91%
    11:00 -12°C° 0.2 mm 5 mps 663 mmHg 92%
    12:00 -12°C° 0.2 mm 4 mps 663 mmHg 93%
    13:00 -10°C° 0.2 mm 2 mps 663 mmHg 94%
    14:00 -10°C° 0.5 mm 2 mps 663 mmHg 95%
    15:00 -10°C° 0.5 mm 2 mps 663 mmHg 96%
    16:00 -8°C° 0.5 mm 1 mps 663 mmHg 96%
    17:00 -9°C° 0.2 mm 1 mps 663 mmHg 96%
    18:00 -9°C° 0.2 mm 1 mps 663 mmHg 96%
    19:00 -9°C° 0.2 mm 1 mps 663 mmHg 96%
    20:00 -9°C° 0.4 mm 1 mps 663 mmHg 96%
    21:00 -8°C° 0.4 mm 1 mps 663 mmHg 96%
    22:00 -9°C° 0.4 mm 2 mps 663 mmHg 96%
    23:00 -9°C° 0.4 mm 2 mps 663 mmHg 96%
    Show more